Location: Rochester
(43.1610°N, 77.6109°W)
Time: 18:46:23
(UTC-04:00)

Envisat - Pass Details

Date: 30 July 2021
Orbit: 764 x 766 km, 98.2° (Epoch: 17 September)

Event Time Altitude Azimuth Distance (km) Brightness Sun altitude
Rises 05:19:23 0° 29° (NNE) 3,241 7.5 -7.1°
Reaches altitude 10° 05:22:25 10° 47° (NE) 2,309 7.2 -6.6°
Maximum altitude 05:25:55 19° 91° (E) 1,785 5.8 -6.1°
Drops below altitude 10° 05:29:24 10° 135° (SE) 2,297 5.7 -5.6°
Sets 05:32:22 0° 153° (SSE) 3,217 6.2 -5.1°
